Погода в Ореле

Погода в Ореле : погода сейчас, прогноз погоды и архив. Всё, что Вы хотите узнать о погоде в Ореле!

Хотите узнать прогноз погоды в Ореле? Тогда Вам сюда: Погода в Ореле

Поиск расширенной информации на нашем сайте:

Полезная информация:

Другие новости

Новости СМИ2

Главная страница сайта

Новости сайта

03.07.2017

Напоминаем, что на нашем специализированном сайте Метеоцентр.Азия вы можете получить высокодетализированные автоматические прогнозы погоды по пунктам России, СНГ и мира в авиационном формате (включающие направление и скорость ветра, видимость, явления погоды, количество и форму облачности, нижнюю и верхнюю границу облачности).

Рекомендуем:

Погода в Ореле - сегодня

Время (UTC), дата Ветер
(°,м/с) 
Видим.   Явления Облачность Т
(°С)
Тd
(°С)
f(%) Тe
(°С)
Pmin
(гПа)
dP
(гПа)
Po
(мм)
O2
(г/м3)
Тmin Tmax R s Состояние
почвы
09 15.09.19 290 (З) 10 км    6/4 600 м кучево-дожд., верхняя 
[Cb calv|Ci fib]
+15.9 +3.3 43 +16  1019.4  -0.9  747  284           
12 15.09.19 270 (З) 10 км    9/5 600 м кучево-дожд., верхняя 
[Cb calv|Ci fib]
+17.4 +1.2 34 +18  1017.3  -2  746  282           
15 15.09.19 240 (ЮЗ) 10 км    10/0 средняя 
[As trans]
+15.8 +0.9 36 +17  1014.9  -2.4  744  283           
18 15.09.19 250 (З) 10 км    10/0 средняя 
[As op]
+14.2 +1.7 43 +15  1013.7  -1.3  743  284    +17.7       
21 15.09.19 230 (ЮЗ) 10 км    10/0 средняя 
[Ac As]
+13.1 +1.8 46 +13  1011.3  -2.4  741  285           
00 16.09.19 230 (ЮЗ) 10 км    9/0 средняя, верхняя 
[Ac trans|Ci fib]
+13.1 +3 50 +14  1008.5  -2.8  739  284           
03 16.09.19 240 (ЮЗ) 10 км    9/0 средняя, верхняя 
[Ac trans|Ci sp]
+12.3 +3.2 54 +14  1006.2  -2.2  737  284  +12.3         
06 16.09.19 220 (ЮЗ) 10 км  слаб. ливневой дождь  10/10 600 м кучево-дожд. 
[Cb calv]
+10.2 +6.4 77 +10  1005.9  -0.5  737  285  +10.1    0.6    влажная 
09 16.09.19 250 (З) 3-10{10}  10 км  {ливн. осадки}  9/6 600 м кучево-дожд., средняя, верхняя 
[Cb calv|Ac trans|Ci fib]
+14.5 +8.4 67 +15  1004.5  -1  736  280           
12 16.09.19 270 (З) 4{11}  10 км  {ливн. осадки}  8/5 600 м кучево-дожд., средняя 
[Cb calv|Ac trans]
+16.6 +6.8 52 +17  1003.7  -0.6  736  278           
15 16.09.19 270 (З) 3{10}  10 км    8/4 600 м средняя, верхняя 
[Sc|Ac trans|Ci fib]
+16.5 +6.5 52 +17  1003.6  -0.1  736  278      0.6     
18 16.09.19 250 (З) 10 км    8/0 средняя, верхняя 
[Ac trans|Ci fib]
+11.5 +5.5 67 +13  1004.9  0.9  736  284    +18.4  0.0     
21 16.09.19 230 (ЮЗ) 10 км    10/0 средняя, верхняя 
[Ac trans|Cs]
+11 +4.6 65 +12  1004.4  -0.6  736  284           
00 17.09.19 250 (З) 10 км    4/0 верхняя 
[Ci fib]
+9.2 +4.3 71 +10  1003.7  -0.8  735  286           
03 17.09.19 250 (З) 10 км    3/0 средняя 
[Ac trans]
+8.4 +4.2 75 +8  1003.2  -0.5  735  287  +8.1         
06 17.09.19 270 (З) 10 км    8/0 средняя 
[Ac trans]
+11.2 +5.3 67 +11  1003.1  0.2  735  284  +7.4        сухая 
09 17.09.19 290 (З) 10 км    8/8 600 м кучево-дожд., верхняя 
[Cb calv|Ci fib]
+13.7 +3.6 50 +14  1002.9  0.1  735  281           
12 17.09.19 260 (З) 2{10}  10 км  в посл. час ливневой дождь  4/4 600 м кучево-дожд. 
[Cb calv]
+13.4 +6.7 64 +14  1002.7  0.1  735  281           
15 17.09.19 270 (З) 10 км    3/3 600 м верхняя 
[Sc|Ci fib]
+13.7 +2 45 +14  1002.3  -0.4  735  282      0.9     
18 17.09.19 260 (З) 10 км    4/3 600 м средняя 
[Sc|Ac trans]
+9.6 +2.8 63 +10  1003.6  0.9  735  286    +16.4  0.9     
21 17.09.19 200 (Ю) 10 км    8/0 средняя 
[Ac trans]
+8.6 +2.9 67 +9  1003.1  -0.5  735  287           
00 18.09.19 170 (Ю) 10 км    10/0 средняя 
[As trans]
+7 +3.4 78 +7  1002  -1.3  734  288           
03 18.09.19 170 (Ю) 10 км    10/4 600 м кучево-дожд., средняя 
[Cb calv|As op]
+7 +3.5 78 +8  1000.7  -1.2  733  287  +6.4         
06 18.09.19 140 (ЮВ) 10 км  в посл. час ливневой дождь  10/8 600 м кучево-дожд., средняя 
[Cb calv|As op]
+7.8 +6.2 90 +8  998.7  -1.9  732  286  +6.4      влажная 
09 18.09.19 190 (Ю) 10 км    9/8 600 м кучево-дожд., средняя 
[Cb calv|Ac trans]
+13.3 +5.2 58 +14  997  -1.2  731  280           
Время (UTC), дата Ветер
(°,м/с) 
Видим.   Явления Облачность Т
(°С)
Тd
(°С)
f(%) Тe
(°С)
Pmin
(гПа)
dP
(гПа)
Po
(мм)
O2
(г/м3)
Тmin Tmax R s Состояние
почвы

Для получения пояснительной информации подведите курсор к названию столбца.

ПОГОДА в Ореле - архив

Всё, что Вы хотите узнать о погоде в Ореле - удобно и подробно!

Выберите нужную дату (начиная с 1 января 2018* года) и нажмите кнопку "Найти".
Будут отображены архивные сводки погоды по пункту Орел, начиная с указанной даты.


Отображать данные в формате CSV (для использования в таблицах Excel)


Внимание! Наш архив погоды предназначен исключительно для личного некоммерческого использования в познавательных целях. Если Вам необходимы официальные справки о состоянии погоды (для производственных, юридических, коммерческих и т.п. целей), обращайтесь в органы Росгидромета.

*Примечание: данная дата относится к архиву по метеостанциям СССР (Россия, СНГ, Балтия).
Архив по метеостанциям Зарубежной Европы и Азии (кроме Китая) хранится 10 дней, по другим регионам земного шара (Китай, Африка, Америка, Австралия, Океания) - 1 день.

Орел - район местоположения метеостанции


Название, широта, долгота, высота метеостанции:
Орел 52.9°ш. 36°д. 196 м над ур. моря [Российская Федерация]

Дополнительная информация

В oтличие oт бoльшинства пoгoдных сайтoв мы публикуем пoдрoбную метеoинфoрмацию в детальнoм прoфессиoнальнoм фoрмате.

Характеристики температуры и влажнoсти вoздуха измеряются на высoте 2 м в тени вдали oт зданий и деревьев.
Скoрoсть ветра измеряется на высoте 10 м (на урoвне рoста челoвека скoрoсть ветра ниже в 1.5-2 раза). Если метеoстанция нахoдится в гoрoде или в лесу, тo скoрoсть ветра занижена на 2-4 м/с пo сравнению с oткрытым местoм. Скoрoсть ветра над акватoриями крупных рек и oзёр, а также на вершинах хoлмoв на 2-5 м/с выше, чем в oбычных услoвиях.
Атмoсфернoе давление в разных тoчках местнoсти мoжет значительнo oтличаться oт давления на метеoстанции, в зависимoсти oт услoвий рельефа (при пoдъёме на 10 м давление пoнижается примернo на 1 мм рт.ст.).